Content
SEND FEEDBACK

Daily
Averages
Monthly
Summary
United States of America

WILMINGTON, NORTH CAROLINA


Home > North America > United States > North Carolina
Elevation: 72 feet     Latitude: 34 16N     Longitude: 077 54W

WEATHER
 
SELECT A DAY
Number of Records: 209,081;   Date Range: 1/1/95 - 9/16/14
 
SHARE

PRINT THIS DATA

[ ← Previous Day ]
WEATHER ALMANAC - APRIL 18, 2013
[ Next Day → ]
[ °C ]   °F
Weather ElementAverageHighLow
Temperature67.1 °F75.9 °F (12:53 pm)55.9 °F (5:53 am)
Dewpoint60.1 °F64.9 °F (6:53 pm)54 °F (5:53 am)
Humidity79.7 %97 % (2:53 am)56 % (12:53 pm)
Barometer30.16 in30.21 in (10:42 am)30.09 in (10:53 pm)
Wind Speed7 mph16.1 mph (3:53 pm)
Wind Gust21.9 mph (11:29 am)
Weather ElementAverage
Visibility9.1 mi
Wind DirectionE (85.3 °)

Weather ElementTotal
Precipitation---
Cooling Degree Days0.9 (Base 65)
Growing Degree Days15.9 (Base 50)
Averaged from 32 records on April 18, 2013
WEATHER CONDITIONS BREAKOUT
WIND DIRECTION BREAKOUT
WEATHER BY HOUR - APRIL 18, 2013
[ °C ]   °F
Local TimeTemperatureDewpointHumidityBarometerVisibilityWind DirectionWind SpeedGust SpeedPrecipitationEventsConditions
1:53 AM61.0 °F59.0 °F93 %30.17 in10.0 miCalmClear
2:53 AM57.9 °F57.0 °F97 %30.15 in9.0 miNE (40°)3.5 mphClear
3:49 AM59.0 °F57.2 °F94 %30.15 in9.0 miCalmScattered Clouds
3:53 AM59.0 °F57.0 °F93 %30.15 in10.0 miCalmScattered Clouds
4:04 AM57.2 °F55.4 °F94 %30.15 in5.0 miCalmMostly Cloudy
4:14 AM57.2 °F55.4 °F94 %30.15 in2.0 miNE (40°)4.6 mphMostly Cloudy
4:18 AM57.2 °F55.4 °F94 %30.15 in3.0 miNNE (30°)4.6 mphScattered Clouds
4:53 AM57.0 °F55.9 °F96 %30.15 in8.0 miCalmClear
5:41 AM57.2 °F55.4 °F94 %30.16 in6.0 miNE (40°)3.5 mphPartly Cloudy
5:53 AM55.9 °F54.0 °F93 %30.16 in10.0 miCalmClear
6:53 AM57.0 °F55.0 °F93 %30.17 in9.0 miCalmClear
7:53 AM63.0 °F61.0 °F93 %30.19 in10.0 miEast (80°)4.6 mphClear
8:53 AM71.1 °F64.0 °F78 %30.19 in10.0 miESE (110°)6.9 mphClear
9:53 AM71.1 °F62.1 °F73 %30.20 in10.0 miSE (130°)9.2 mphOvercast
10:17 AM71.6 °F62.6 °F73 %30.20 in10.0 miSE (130°)11.5 mph17.3 mphOvercast
10:42 AM73.4 °F60.8 °F65 %30.21 in10.0 miSE (140°)12.7 mph19.6 mphOvercast
10:53 AM73.0 °F61.0 °F66 %30.21 in10.0 miESE (120°)15.0 mphOvercast
11:29 AM73.4 °F60.8 °F65 %30.21 in10.0 miESE (120°)15.0 mph21.9 mphOvercast
11:53 AM73.9 °F60.1 °F62 %30.21 in10.0 miESE (120°)11.5 mph21.9 mphMostly Cloudy
12:09 PM73.4 °F60.8 °F65 %30.20 in10.0 miSE (140°)11.5 mph19.6 mphMostly Cloudy
12:53 PM75.9 °F59.0 °F56 %30.19 in10.0 miSE (140°)11.5 mphMostly Cloudy
1:53 PM75.9 °F60.1 °F58 %30.18 in10.0 miSE (140°)11.5 mph19.6 mphPartly Cloudy
2:53 PM75.0 °F61.0 °F62 %30.17 in10.0 miESE (120°)10.4 mphOvercast
3:53 PM75.0 °F61.0 °F62 %30.15 in10.0 miESE (120°)16.1 mph20.7 mphOvercast
4:53 PM73.0 °F61.0 °F66 %30.13 in10.0 miSE (130°)10.4 mphOvercast
5:53 PM73.0 °F62.1 °F68 %30.12 in10.0 miSE (130°)10.4 mph19.6 mphOvercast
6:53 PM70.0 °F64.9 °F84 %30.11 in10.0 miSE (130°)8.1 mph16.1 mph0.00 inRainLight Rain
7:53 PM70.0 °F64.9 °F84 %30.10 in10.0 miSE (130°)6.9 mph0.00 inOvercast
8:53 PM70.0 °F64.9 °F84 %30.11 in10.0 miCalm0.00 inRainLight Rain
9:53 PM70.0 °F64.9 °F84 %30.11 in9.0 miSE (140°)6.9 mph0.00 inRainLight Rain
10:53 PM70.0 °F64.9 °F84 %30.09 in10.0 miSSE (160°)8.1 mph0.00 inScattered Clouds
11:53 PM70.0 °F64.9 °F84 %30.09 in10.0 miSSE (150°)8.1 mphClear
Hourly data recorded from KILM, located miles away from Wilmington, North Carolina







STORIES FROM OUR PARTNERS